Preston, MN

6:53 AM CDT on March 26, 2017 (GMT -0500)
Preston

Weather History for KFKA - April, 2013

Change the Weather History Date:

Tuesday, April 9, 2013

  Actual Average (KRST) Record (KRST)
Temperature  
Mean Temperature 40 °F -  
Max Temperature 41 °F 50 °F 76 °F (1955)
Min Temperature 38 °F 30 °F 13 °F (1997)
Degree Days  
Heating Degree Days 26    
Moisture  
Dew Point 34 °F    
Average Humidity 78    
Maximum Humidity 81    
Minimum Humidity 74    
Precipitation  
Precipitation 1.41 in - - ()
Sea Level Pressure  
Sea Level Pressure 29.94 in    
Wind  
Wind Speed 13 mph (NE)    
Max Wind Speed 23 mph    
Max Gust Speed 40 mph    
Visibility 4 miles    
Events Rain , Thunderstorm    
Averages and records for this station are not official NWS values.
T = Trace of Precipitation, MM = Missing Value Source: NWS Daily Summary

Daily Weather History Graph

Daily Weather History Graph

Search for Another Location

Airport or City:

Trip Planner

Search our weather history database for the weather conditions in past years. The results will help you decide how hot, cold, wet, or windy it might be!

Date:

Astronomy

Apr. 09, 2013 Rise Set
Actual Time 6:35 AM CDT 7:45 PM CDT
Civil Twilight 6:06 AM CDT 8:14 PM CDT
Nautical Twilight 5:31 AM CDT 8:50 PM CDT
Astronomical Twilight 4:53 AM CDT 9:27 PM CDT
Moon 5:59 AM CDT (4/9) 7:21 PM CDT (4/9)
Length of Visible Light 14h 08m
Length of Day
13h 09m
Waning Crescent, 1% of the Moon is Illuminated
Apr 9
Waning Crescent
Apr 10
New
Apr 18
First Quarter
Apr 25
Full
May 2
Last Quarter

Hourly Weather History & Observations

Time (CDT) Temp. Windchill Dew Point Humidity Pressure Visibility Wind Dir Wind Speed Gust Speed Precip Events Conditions
12:17 AM 41.9 °F 37.5 °F 34.7 °F 76% 29.98 in 4.0 mi NE 6.9 mph - N/A   Haze
12:37 AM 41.2 °F 35.0 °F 34.5 °F 77% 29.97 in 4.0 mi NNE 10.4 mph - N/A   Haze
12:57 AM 41.0 °F 34.3 °F 34.2 °F 77% 29.97 in 4.0 mi NNE 11.5 mph - N/A   Haze
1:17 AM 41.0 °F 33.9 °F 34.0 °F 76% 29.95 in 4.0 mi NE 12.7 mph 17.3 mph N/A   Haze
1:37 AM 40.8 °F 34.1 °F 33.8 °F 76% 29.95 in 4.0 mi NE 11.5 mph 18.4 mph N/A   Haze
1:57 AM 41.0 °F 33.1 °F 33.8 °F 76% 29.93 in 4.0 mi NE 15.0 mph 20.7 mph N/A   Haze
2:17 AM 40.8 °F 32.9 °F 33.6 °F 76% 29.92 in 4.0 mi NE 15.0 mph - N/A   Haze
2:37 AM 40.5 °F 33.2 °F 33.4 °F 76% 29.92 in 4.0 mi NE 12.7 mph - N/A   Haze
2:57 AM 40.8 °F 35.6 °F 33.6 °F 76% 29.95 in 5.0 mi ENE 8.1 mph - N/A   Haze
3:17 AM 40.8 °F 35.6 °F 33.1 °F 74% 29.94 in 5.0 mi NE 8.1 mph - N/A   Haze
3:37 AM 40.5 °F 33.6 °F 32.9 °F 74% 29.93 in 5.0 mi NE 11.5 mph - N/A   Haze
3:57 AM 40.5 °F 34.1 °F 32.9 °F 74% 29.94 in 5.0 mi NE 10.4 mph 16.1 mph N/A   Haze
4:17 AM 40.5 °F 33.6 °F 32.9 °F 74% 29.93 in 5.0 mi NE 11.5 mph - N/A Thunderstorm Haze
4:37 AM 40.3 °F 33.4 °F 32.9 °F 75% 29.93 in 5.0 mi NE 11.5 mph 17.3 mph N/A   Haze
4:57 AM 40.3 °F 32.6 °F 32.9 °F 75% 29.93 in 5.0 mi NE 13.8 mph 19.6 mph N/A   Haze
5:17 AM 40.3 °F 32.2 °F 32.9 °F 75% 29.93 in 5.0 mi NE 15.0 mph 18.4 mph N/A   Haze
5:37 AM 40.3 °F 33.9 °F 32.9 °F 75% 29.93 in 5.0 mi NE 10.4 mph - N/A   Haze
5:57 AM 40.1 °F 33.2 °F 32.9 °F 75% 29.92 in 5.0 mi NE 11.5 mph 19.6 mph N/A Rain Light Rain
6:17 AM 40.1 °F 32.0 °F 32.9 °F 75% 29.89 in 5.0 mi NE 15.0 mph 27.6 mph N/A Rain Light Rain
6:38 AM 40.1 °F 34.1 °F 33.3 °F 77% 29.92 in 4.0 mi NE 9.2 mph - 0.01 in Rain Rain
6:57 AM 39.7 °F 34.3 °F 33.3 °F 78% 29.92 in 3.0 mi ENE 8.1 mph - 0.05 in Rain Rain
7:17 AM 39.7 °F 32.7 °F 33.6 °F 79% 29.92 in 1.8 mi NNE 11.5 mph - 0.04 in Rain Rain
7:37 AM 39.7 °F 32.3 °F 33.8 °F 79% 29.92 in 2.0 mi NE 12.7 mph - 0.06 in Rain Light Rain
7:57 AM 39.4 °F 31.4 °F 33.4 °F 79% 29.92 in 1.8 mi NNE 13.8 mph 18.4 mph 0.07 in Rain Light Rain
8:17 AM 39.2 °F 31.2 °F 33.4 °F 80% 29.90 in 2.5 mi NE 13.8 mph 18.4 mph N/A   Haze
8:37 AM 39.2 °F 31.6 °F 33.3 °F 79% 29.89 in 2.5 mi NNE 12.7 mph 23.0 mph N/A   Haze
8:58 AM 39.0 °F 30.6 °F 33.1 °F 79% 29.88 in 2.5 mi NE 15.0 mph 23.0 mph N/A Rain Light Rain
9:18 AM 38.8 °F 30.8 °F 33.1 °F 80% 29.88 in 1.5 mi NNE 13.8 mph 21.9 mph 0.03 in Rain , Thunderstorm Rain
9:36 AM 38.7 °F 30.5 °F 33.1 °F 80% 29.91 in 1.5 mi NNE 13.8 mph 20.7 mph 0.08 in Rain , Thunderstorm Light Thunderstorms and Rain
9:52 AM 38.7 °F 31.4 °F 33.1 °F 80% 29.92 in 1.0 mi NNE 11.5 mph - 0.17 in   Overcast
10:13 AM 38.5 °F 30.7 °F 32.9 °F 80% 29.93 in 1.0 mi NNE 12.7 mph 18.4 mph 0.09 in Thunderstorm Thunderstorm
10:32 AM 38.7 °F 31.4 °F 33.1 °F 80% 29.96 in 1.2 mi NNE 11.5 mph - 0.20 in Thunderstorm Thunderstorm
10:52 AM 38.5 °F 29.9 °F 32.9 °F 80% 29.93 in 1.0 mi NNE 15.0 mph 19.6 mph 0.33 in   Overcast
11:12 AM 38.3 °F 28.1 °F 32.9 °F 81% 29.84 in 2.0 mi NE 20.7 mph 32.2 mph 0.02 in Rain , Thunderstorm Light Thunderstorms and Rain
11:32 AM 38.5 °F 28.3 °F 32.9 °F 80% 29.88 in 7.0 mi NE 20.7 mph 24.2 mph 0.02 in   Overcast
11:53 AM 39.2 °F 30.5 °F 33.3 °F 79% 29.90 in 10.0 mi NE 16.1 mph 19.6 mph 0.02 in Thunderstorm Overcast
12:12 PM 39.2 °F 30.2 °F 33.4 °F 80% 29.91 in 7.0 mi NNE 17.3 mph 20.7 mph N/A Rain Light Rain
12:33 PM 39.6 °F 31.3 °F 33.8 °F 80% 29.91 in 10.0 mi NNE 15.0 mph 23.0 mph N/A   Light Drizzle
12:53 PM 39.7 °F 31.2 °F 33.8 °F 79% 29.93 in 10.0 mi NNE 16.1 mph 24.2 mph N/A   Overcast
1:13 PM 39.9 °F 31.4 °F 33.8 °F 79% 29.93 in 10.0 mi NNE 16.1 mph 25.3 mph N/A   Overcast
1:32 PM 40.1 °F 30.7 °F 33.8 °F 78% 29.92 in 10.0 mi NNE 19.6 mph 25.3 mph N/A   Overcast
1:53 PM 40.3 °F 31.6 °F 33.8 °F 78% 29.93 in 10.0 mi NE 17.3 mph 26.5 mph N/A   Overcast
2:13 PM 40.3 °F 31.3 °F 33.8 °F 78% 29.93 in 7.0 mi NE 18.4 mph 29.9 mph N/A   Overcast
2:33 PM 40.5 °F 32.5 °F 33.8 °F 77% 29.94 in 2.5 mi NE 15.0 mph 25.3 mph N/A Rain Light Rain
2:52 PM 40.5 °F 31.8 °F 34.2 °F 78% 29.93 in 3.0 mi NE 17.3 mph 23.0 mph N/A Rain Light Rain
3:13 PM 41.0 °F 33.1 °F 34.7 °F 78% 29.93 in 3.0 mi NE 15.0 mph 25.3 mph N/A   Haze
3:32 PM 41.2 °F 33.0 °F 34.9 °F 78% 29.94 in 4.0 mi NE 16.1 mph 27.6 mph N/A   Haze
3:53 PM 41.4 °F 33.3 °F 34.9 °F 78% 29.93 in 7.0 mi NE 16.1 mph 23.0 mph N/A   Overcast
4:13 PM 41.5 °F 34.2 °F 35.1 °F 78% 29.95 in 5.0 mi NE 13.8 mph 20.7 mph N/A   Haze
4:32 PM 41.5 °F 33.5 °F 35.1 °F 78% 29.94 in 4.0 mi NE 16.1 mph 23.0 mph N/A Thunderstorm Haze
4:53 PM 41.5 °F 35.4 °F 35.2 °F 78% 29.97 in 3.0 mi ENE 10.4 mph 23.0 mph N/A   Haze
5:12 PM 41.4 °F 34.0 °F 35.2 °F 79% 29.98 in 2.0 mi NE 13.8 mph 20.7 mph N/A   Haze
5:33 PM 41.2 °F 33.7 °F 35.1 °F 79% 29.97 in 2.5 mi NE 13.8 mph - N/A   Haze
5:53 PM 41.0 °F 33.1 °F 35.1 °F 79% 29.97 in 3.0 mi NE 15.0 mph 26.5 mph N/A   Haze
6:13 PM 41.0 °F 33.1 °F 34.9 °F 79% 29.99 in 4.0 mi NE 15.0 mph 19.6 mph N/A   Haze
6:32 PM 40.5 °F 32.1 °F 34.7 °F 80% 29.99 in 4.0 mi NE 16.1 mph 24.2 mph N/A   Haze
6:52 PM 40.3 °F 30.7 °F 34.5 °F 80% 29.98 in 3.0 mi NE 20.7 mph 25.3 mph N/A   Haze
7:12 PM 40.3 °F 32.6 °F 34.3 °F 79% 29.98 in 4.0 mi NE 13.8 mph 25.3 mph N/A Thunderstorm Haze
7:33 PM 40.1 °F 31.6 °F 34.3 °F 80% 29.98 in 3.0 mi NE 16.1 mph 24.2 mph 0.01 in Rain , Thunderstorm Rain
7:52 PM 40.1 °F 30.7 °F 34.2 °F 79% 29.92 in 4.0 mi NE 19.6 mph 29.9 mph 0.04 in Rain Heavy Rain
8:12 PM 39.9 °F 30.2 °F 33.8 °F 79% 29.90 in 7.0 mi NE 20.7 mph 29.9 mph 0.01 in Rain , Thunderstorm Light Thunderstorms and Rain
8:31 PM 39.7 °F 31.5 °F 33.8 °F 79% 29.98 in 1.2 mi SE 15.0 mph 40.3 mph 0.19 in Rain , Thunderstorm Light Thunderstorms and Rain
8:52 PM 39.7 °F 30.6 °F 33.8 °F 79% 29.92 in 10.0 mi NE 18.4 mph 28.8 mph 0.21 in Rain , Thunderstorm Light Thunderstorms and Rain
9:12 PM 39.6 °F 30.6 °F 33.4 °F 79% 29.96 in 5.0 mi NE 17.3 mph 26.5 mph 0.02 in Rain , Thunderstorm Thunderstorms and Rain
9:32 PM 39.0 °F 29.3 °F 32.4 °F 77% 29.91 in 1.0 mi ENE 19.6 mph 27.6 mph 0.22 in Rain , Thunderstorm Light Thunderstorms and Rain
9:52 PM 39.2 °F 30.8 °F 32.9 °F 78% 29.95 in 7.0 mi ENE 15.0 mph 29.9 mph 0.25 in Rain , Thunderstorm Light Thunderstorms and Rain
10:12 PM 39.4 °F 33.2 °F 32.9 °F 78% 30.03 in 5.0 mi North 9.2 mph - 0.02 in Rain , Thunderstorm Thunderstorms and Rain
10:32 PM 39.2 °F 29.8 °F 32.5 °F 77% 29.96 in 2.5 mi NNE 18.4 mph 26.5 mph 0.08 in Rain , Thunderstorm Light Thunderstorms and Rain
10:53 PM 39.2 °F 28.7 °F 32.2 °F 76% 29.92 in 1.8 mi NE 23.0 mph 26.5 mph 0.18 in Thunderstorm Unknown
11:12 PM 39.2 °F 32.0 °F 32.5 °F 77% 30.01 in 5.0 mi NE 11.5 mph 17.3 mph 0.02 in Rain , Thunderstorm Light Thunderstorms and Rain
11:33 PM 38.8 °F 32.6 °F 32.4 °F 78% 30.04 in 5.0 mi NNE 9.2 mph 19.6 mph 0.05 in Rain , Thunderstorm Thunderstorms and Rain
11:53 PM 38.3 °F 30.1 °F 32.0 °F 78% 29.99 in 7.0 mi NE 13.8 mph - 0.09 in Rain , Thunderstorm Light Thunderstorms and Rain